STARLINK-3854 (52648 NORAD) Tracking and Keplerian Element Data
This shows tracking and keplerian element data for the satellite.
Feedback or suggestion? Click here.
Element | Value |
Catalog | 52648 |
Name | STARLINK-3854 |
Epoch Orbit | 130 |
Epoch Day | 167.08334491 |
Epoch Year | 2022 |
RAAN | 279.9872 |
Inclination | 53.2137 |
Eccentricity | 0.0001471 |
Argument of Perigee | 38.3708 |
Mean Anonmoly | 5.4344 |
Mean Motion | 15.73196833 |
Decay Rate | 0.00075357 |
L1 | 1 52648U 22052BC 22167.08334491 .00075357 00000+0 53660-3 0 9995 |
L2 | 2 52648 53.2137 279.9872 0001471 38.3708 5.4344 15.73196833 1304 |
Live tracking and technical data element details for STARLINK-3854 (NORAD 52648). STARLINK-3854 can be tracked NOW for your location showing map with azimuth and elevation plus other details from your city location.
Track the satellite on the map from your city or location and see movement details for azimuth, elevation, latitude, longitude, range, height, and movement on the map or in text.
IsCatalogInMostPopularTable: catalog: 52648, numindb: 2
Update: records affected: 1
GetName: 52648 STARLINK-3854
Hit Count: updated at: Mon, 27 Jun 2022 05:27:03 GMT